Year,Month,Day,Hour,Minute,Value (Times are PST for temperature in C)
2021,04,17,00,00,9.60
2021,04,17,00,01,9.60
2021,04,17,00,02,9.60
2021,04,17,00,03,9.60
2021,04,17,00,04,9.60
2021,04,17,00,05,9.50
2021,04,17,00,06,9.60
2021,04,17,00,07,9.50
2021,04,17,00,08,9.50
2021,04,17,00,09,9.50
2021,04,17,00,10,9.50
2021,04,17,00,11,9.50
2021,04,17,00,12,9.50
2021,04,17,00,13,9.50
2021,04,17,00,14,9.50
2021,04,17,00,15,9.50
2021,04,17,00,16,9.40
2021,04,17,00,17,9.50
2021,04,17,00,18,9.40
2021,04,17,00,19,9.50
2021,04,17,00,20,9.40
2021,04,17,00,21,9.40
2021,04,17,00,22,9.40
2021,04,17,00,23,9.40
2021,04,17,00,24,9.40
2021,04,17,00,25,9.40
2021,04,17,00,26,9.30
2021,04,17,00,27,9.30
2021,04,17,00,28,9.30
2021,04,17,00,29,9.30
2021,04,17,00,30,9.20
2021,04,17,00,31,9.20
2021,04,17,00,32,9.20
2021,04,17,00,33,9.20
2021,04,17,00,34,9.20
2021,04,17,00,35,9.20
2021,04,17,00,36,9.10
2021,04,17,00,37,9.10
2021,04,17,00,38,9.10
2021,04,17,00,39,9.10
2021,04,17,00,40,9.00
2021,04,17,00,41,9.00
2021,04,17,00,42,9.00
2021,04,17,00,43,8.90
2021,04,17,00,44,8.90
2021,04,17,00,45,8.90
2021,04,17,00,46,8.90
2021,04,17,00,47,8.90
2021,04,17,00,48,8.90
2021,04,17,00,49,8.90
2021,04,17,00,50,8.80
2021,04,17,00,51,8.80
2021,04,17,00,52,8.80
2021,04,17,00,53,8.80
2021,04,17,00,54,8.80
2021,04,17,00,55,8.80
2021,04,17,00,56,8.80
2021,04,17,00,57,8.70
2021,04,17,00,58,8.70
2021,04,17,00,59,8.70
2021,04,17,01,00,8.70
2021,04,17,01,01,8.70
2021,04,17,01,02,8.70
2021,04,17,01,03,8.60
2021,04,17,01,04,8.60
2021,04,17,01,05,8.60
2021,04,17,01,06,8.50
2021,04,17,01,07,8.50
2021,04,17,01,08,8.40
2021,04,17,01,09,8.40
2021,04,17,01,10,8.40
2021,04,17,01,11,8.30
2021,04,17,01,12,8.30
2021,04,17,01,13,8.30
2021,04,17,01,14,8.30
2021,04,17,01,15,8.20
2021,04,17,01,16,8.20
2021,04,17,01,17,8.20
2021,04,17,01,18,8.20
2021,04,17,01,19,8.20
2021,04,17,01,20,8.20
2021,04,17,01,21,8.20
2021,04,17,01,22,8.20
2021,04,17,01,23,8.20
2021,04,17,01,24,8.20
2021,04,17,01,25,8.20
2021,04,17,01,26,8.20
2021,04,17,01,27,8.10
2021,04,17,01,28,8.10
2021,04,17,01,29,8.10
2021,04,17,01,30,8.00
2021,04,17,01,31,8.00
2021,04,17,01,32,8.00
2021,04,17,01,33,7.90
2021,04,17,01,34,7.90
2021,04,17,01,35,7.90
2021,04,17,01,36,7.90
2021,04,17,01,37,7.90
2021,04,17,01,38,7.90
2021,04,17,01,39,7.90
2021,04,17,01,40,7.90
2021,04,17,01,41,7.90
2021,04,17,01,42,7.80
2021,04,17,01,43,7.80
2021,04,17,01,44,7.80
2021,04,17,01,45,7.80
2021,04,17,01,46,7.70
2021,04,17,01,47,7.70
2021,04,17,01,48,7.70
2021,04,17,01,49,7.70
2021,04,17,01,50,7.70
2021,04,17,01,51,7.70
2021,04,17,01,52,7.70
2021,04,17,01,53,7.70
2021,04,17,01,54,7.70
2021,04,17,01,55,7.70
2021,04,17,01,56,7.60
2021,04,17,01,57,7.60
2021,04,17,01,58,7.60
2021,04,17,01,59,7.60
2021,04,17,02,00,7.60
2021,04,17,02,01,7.60
2021,04,17,02,02,7.60
2021,04,17,02,03,7.60
2021,04,17,02,04,7.60
2021,04,17,02,05,7.60
2021,04,17,02,06,7.60
2021,04,17,02,07,7.60
2021,04,17,02,08,7.60
2021,04,17,02,09,7.60
2021,04,17,02,10,7.50
2021,04,17,02,11,7.50
2021,04,17,02,12,7.50
2021,04,17,02,13,7.50
2021,04,17,02,14,7.40
2021,04,17,02,15,7.40
2021,04,17,02,16,7.40
2021,04,17,02,17,7.40
2021,04,17,02,18,7.40
2021,04,17,02,19,7.30
2021,04,17,02,20,7.30
2021,04,17,02,21,7.30
2021,04,17,02,22,7.30
2021,04,17,02,23,7.30
2021,04,17,02,24,7.30
2021,04,17,02,25,7.30
2021,04,17,02,26,7.30
2021,04,17,02,27,7.30
2021,04,17,02,28,7.30
2021,04,17,02,29,7.30
2021,04,17,02,30,7.30
2021,04,17,02,31,7.20
2021,04,17,02,32,7.20
2021,04,17,02,33,7.20
2021,04,17,02,34,7.20
2021,04,17,02,35,7.20
2021,04,17,02,36,7.20
2021,04,17,02,37,7.10
2021,04,17,02,38,7.10
2021,04,17,02,39,7.10
2021,04,17,02,40,7.10
2021,04,17,02,41,7.10
2021,04,17,02,42,7.10
2021,04,17,02,43,7.00
2021,04,17,02,44,7.00
2021,04,17,02,45,7.00
2021,04,17,02,46,7.00
2021,04,17,02,47,7.00
2021,04,17,02,48,7.00
2021,04,17,02,49,6.90
2021,04,17,02,50,6.90
2021,04,17,02,51,6.90
2021,04,17,02,52,6.90
2021,04,17,02,53,6.90
2021,04,17,02,54,6.90
2021,04,17,02,55,6.90
2021,04,17,02,56,6.90
2021,04,17,02,57,6.90
2021,04,17,02,58,6.90
2021,04,17,02,59,6.90
2021,04,17,03,00,6.90
2021,04,17,03,01,6.90
2021,04,17,03,02,6.90
2021,04,17,03,03,6.90
2021,04,17,03,04,6.90
2021,04,17,03,05,6.80
2021,04,17,03,06,6.80
2021,04,17,03,07,6.80
2021,04,17,03,08,6.80
2021,04,17,03,09,6.80
2021,04,17,03,10,6.80
2021,04,17,03,11,6.80
2021,04,17,03,12,6.80
2021,04,17,03,13,6.80
2021,04,17,03,14,6.70
2021,04,17,03,15,6.80
2021,04,17,03,16,6.70
2021,04,17,03,17,6.70
2021,04,17,03,18,6.70
2021,04,17,03,19,6.70
2021,04,17,03,20,6.70
2021,04,17,03,21,6.70
2021,04,17,03,22,6.70
2021,04,17,03,23,6.70
2021,04,17,03,24,6.60
2021,04,17,03,25,6.60
2021,04,17,03,26,6.60
2021,04,17,03,27,6.60
2021,04,17,03,28,6.60
2021,04,17,03,29,6.60
2021,04,17,03,30,6.60
2021,04,17,03,31,6.60
2021,04,17,03,32,6.50
2021,04,17,03,33,6.60
2021,04,17,03,34,6.50
2021,04,17,03,35,6.50
2021,04,17,03,36,6.50
2021,04,17,03,37,6.50
2021,04,17,03,38,6.50
2021,04,17,03,39,6.50
2021,04,17,03,40,6.50
2021,04,17,03,41,6.50
2021,04,17,03,42,6.40
2021,04,17,03,43,6.40
2021,04,17,03,44,6.40
2021,04,17,03,45,6.40
2021,04,17,03,46,6.40
2021,04,17,03,47,6.40
2021,04,17,03,48,6.40
2021,04,17,03,49,6.40
2021,04,17,03,50,6.40
2021,04,17,03,51,6.40
2021,04,17,03,52,6.40
2021,04,17,03,53,6.40
2021,04,17,03,54,6.40
2021,04,17,03,55,6.30
2021,04,17,03,56,6.40
2021,04,17,03,57,6.40
2021,04,17,03,58,6.40
2021,04,17,03,59,6.40
2021,04,17,04,00,6.40
2021,04,17,04,01,6.40
2021,04,17,04,02,6.40
2021,04,17,04,03,6.40
2021,04,17,04,04,6.30
2021,04,17,04,05,6.30
2021,04,17,04,06,6.30
2021,04,17,04,07,6.30
2021,04,17,04,08,6.30
2021,04,17,04,09,6.30
2021,04,17,04,10,6.30
2021,04,17,04,11,6.30
2021,04,17,04,12,6.30
2021,04,17,04,13,6.30
2021,04,17,04,14,6.30
2021,04,17,04,15,6.20
2021,04,17,04,16,6.20
2021,04,17,04,17,6.20
2021,04,17,04,18,6.10
2021,04,17,04,19,6.10
2021,04,17,04,20,6.10
2021,04,17,04,21,6.00
2021,04,17,04,22,6.00
2021,04,17,04,23,5.90
2021,04,17,04,24,5.90
2021,04,17,04,25,5.80
2021,04,17,04,26,5.80
2021,04,17,04,27,5.80
2021,04,17,04,28,5.70
2021,04,17,04,29,5.70
2021,04,17,04,30,5.70
2021,04,17,04,31,5.60
2021,04,17,04,32,5.60
2021,04,17,04,33,5.60
2021,04,17,04,34,5.60
2021,04,17,04,35,5.60
2021,04,17,04,36,5.60
2021,04,17,04,37,5.60
2021,04,17,04,38,5.60
2021,04,17,04,39,5.60
2021,04,17,04,40,5.60
2021,04,17,04,41,5.60
2021,04,17,04,42,5.60
2021,04,17,04,43,5.60
2021,04,17,04,44,5.60
2021,04,17,04,45,5.60
2021,04,17,04,46,5.60
2021,04,17,04,47,5.60
2021,04,17,04,48,5.60
2021,04,17,04,49,5.60
2021,04,17,04,50,5.60
2021,04,17,04,51,5.60
2021,04,17,04,52,5.60
2021,04,17,04,53,5.60
2021,04,17,04,54,5.60
2021,04,17,04,55,5.60
2021,04,17,04,56,5.60
2021,04,17,04,57,5.60
2021,04,17,04,58,5.60
2021,04,17,04,59,5.60
2021,04,17,05,00,5.50
2021,04,17,05,01,5.50
2021,04,17,05,02,5.50
2021,04,17,05,03,5.50
2021,04,17,05,04,5.50
2021,04,17,05,05,5.40
2021,04,17,05,06,5.40
2021,04,17,05,07,5.40
2021,04,17,05,08,5.40
2021,04,17,05,09,5.40
2021,04,17,05,10,5.40
2021,04,17,05,11,5.40
2021,04,17,05,12,5.40
2021,04,17,05,13,5.40
2021,04,17,05,14,5.30
2021,04,17,05,15,5.30
2021,04,17,05,16,5.30
2021,04,17,05,17,5.30
2021,04,17,05,18,5.30
2021,04,17,05,19,5.30
2021,04,17,05,20,5.30
2021,04,17,05,21,5.20
2021,04,17,05,22,5.20
2021,04,17,05,23,5.20
2021,04,17,05,24,5.10
2021,04,17,05,25,5.10
2021,04,17,05,26,5.10
2021,04,17,05,27,5.10
2021,04,17,05,28,5.00
2021,04,17,05,29,5.00
2021,04,17,05,30,5.00
2021,04,17,05,31,4.90
2021,04,17,05,32,4.90
2021,04,17,05,33,4.90
2021,04,17,05,34,4.90
2021,04,17,05,35,4.90
2021,04,17,05,36,4.90
2021,04,17,05,37,4.90
2021,04,17,05,38,4.90
2021,04,17,05,39,4.90
2021,04,17,05,40,4.90
2021,04,17,05,41,4.90
2021,04,17,05,42,4.90
2021,04,17,05,43,4.90
2021,04,17,05,44,4.90
2021,04,17,05,45,4.90
2021,04,17,05,46,4.90
2021,04,17,05,47,4.80
2021,04,17,05,48,4.80
2021,04,17,05,49,4.80
2021,04,17,05,50,4.80
2021,04,17,05,51,4.80
2021,04,17,05,52,4.80
2021,04,17,05,53,4.80
2021,04,17,05,54,4.80
2021,04,17,05,55,4.70
2021,04,17,05,56,4.70
2021,04,17,05,57,4.70
2021,04,17,05,58,4.70
2021,04,17,05,59,4.70
2021,04,17,06,00,4.70
2021,04,17,06,01,4.60
2021,04,17,06,02,4.60
2021,04,17,06,03,4.60
2021,04,17,06,04,4.60
2021,04,17,06,05,4.60
2021,04,17,06,06,4.60
2021,04,17,06,07,4.60
2021,04,17,06,08,4.60
2021,04,17,06,09,4.50
2021,04,17,06,10,4.50
2021,04,17,06,11,4.50
2021,04,17,06,12,4.50
2021,04,17,06,13,4.50
2021,04,17,06,14,4.50
2021,04,17,06,15,4.50
2021,04,17,06,16,4.60
2021,04,17,06,17,4.60
2021,04,17,06,18,4.60
2021,04,17,06,19,4.60
2021,04,17,06,20,4.60
2021,04,17,06,21,4.60
2021,04,17,06,22,4.60
2021,04,17,06,23,4.60
2021,04,17,06,24,4.60
2021,04,17,06,25,4.60
2021,04,17,06,26,4.60
2021,04,17,06,27,4.50
2021,04,17,06,28,4.50
2021,04,17,06,29,4.50
2021,04,17,06,30,4.50
2021,04,17,06,31,4.40
2021,04,17,06,32,4.40
2021,04,17,06,33,4.40
2021,04,17,06,34,4.40
2021,04,17,06,35,4.40
2021,04,17,06,36,4.40
2021,04,17,06,37,4.40
2021,04,17,06,38,4.40
2021,04,17,06,39,4.40
2021,04,17,06,40,4.40
2021,04,17,06,41,4.40
2021,04,17,06,42,4.40
2021,04,17,06,43,4.40
2021,04,17,06,44,4.40
2021,04,17,06,45,4.40
2021,04,17,06,46,4.40
2021,04,17,06,47,4.40
2021,04,17,06,48,4.40
2021,04,17,06,49,4.40
2021,04,17,06,50,4.50
2021,04,17,06,51,4.50
2021,04,17,06,52,4.50
2021,04,17,06,53,4.50
2021,04,17,06,54,4.50
2021,04,17,06,55,4.50
2021,04,17,06,56,4.60
2021,04,17,06,57,4.60
2021,04,17,06,58,4.60
2021,04,17,06,59,4.60
2021,04,17,07,00,4.60
2021,04,17,07,01,4.60
2021,04,17,07,02,4.60
2021,04,17,07,03,4.60
2021,04,17,07,04,4.70
2021,04,17,07,05,4.70
2021,04,17,07,06,4.70
2021,04,17,07,07,4.70
2021,04,17,07,08,4.70
2021,04,17,07,09,4.80
2021,04,17,07,10,4.80
2021,04,17,07,11,4.90
2021,04,17,07,12,4.90
2021,04,17,07,13,4.90
2021,04,17,07,14,4.90
2021,04,17,07,15,4.90
2021,04,17,07,16,4.90
2021,04,17,07,17,5.00
2021,04,17,07,18,5.00
2021,04,17,07,19,5.00
2021,04,17,07,20,5.00
2021,04,17,07,21,5.10
2021,04,17,07,22,5.10
2021,04,17,07,23,5.10
2021,04,17,07,24,5.20
2021,04,17,07,25,5.20
2021,04,17,07,26,5.30
2021,04,17,07,27,5.40
2021,04,17,07,28,5.40
2021,04,17,07,29,5.50
2021,04,17,07,30,5.50
2021,04,17,07,31,5.60
2021,04,17,07,32,5.70
2021,04,17,07,33,5.70
2021,04,17,07,34,5.80
2021,04,17,07,35,5.90
2021,04,17,07,36,6.00
2021,04,17,07,37,6.00
2021,04,17,07,38,6.10
2021,04,17,07,39,6.20
2021,04,17,07,40,6.30
2021,04,17,07,41,6.30
2021,04,17,07,42,6.40
2021,04,17,07,43,6.50
2021,04,17,07,44,6.60
2021,04,17,07,45,6.70
2021,04,17,07,46,6.80
2021,04,17,07,47,6.90
2021,04,17,07,48,7.00
2021,04,17,07,49,7.10
2021,04,17,07,50,7.10
2021,04,17,07,51,7.20
2021,04,17,07,52,7.30
2021,04,17,07,53,7.40
2021,04,17,07,54,7.50
2021,04,17,07,55,7.60
2021,04,17,07,56,7.70
2021,04,17,07,57,7.70
2021,04,17,07,58,7.80
2021,04,17,07,59,7.90
2021,04,17,08,00,8.00
2021,04,17,08,01,8.00
2021,04,17,08,02,8.10
2021,04,17,08,03,8.20
2021,04,17,08,04,8.30
2021,04,17,08,05,8.40
2021,04,17,08,06,8.50
2021,04,17,08,07,8.60
2021,04,17,08,08,8.70
2021,04,17,08,09,8.70
2021,04,17,08,10,8.90
2021,04,17,08,11,8.90
2021,04,17,08,12,9.00
2021,04,17,08,13,9.10
2021,04,17,08,14,9.20
2021,04,17,08,15,9.30
2021,04,17,08,16,9.40
2021,04,17,08,17,9.50
2021,04,17,08,18,9.60
2021,04,17,08,19,9.80
2021,04,17,08,20,9.90
2021,04,17,08,21,10.00
2021,04,17,08,22,10.10
2021,04,17,08,23,10.20
2021,04,17,08,24,10.30
2021,04,17,08,25,10.40
2021,04,17,08,26,10.50
2021,04,17,08,27,10.60
2021,04,17,08,28,10.80
2021,04,17,08,29,10.90
2021,04,17,08,30,10.90
2021,04,17,08,31,11.10
2021,04,17,08,32,11.20
2021,04,17,08,33,11.30
2021,04,17,08,34,11.40
2021,04,17,08,35,11.50
2021,04,17,08,36,11.60
2021,04,17,08,37,11.70
2021,04,17,08,38,11.90
2021,04,17,08,39,12.00
2021,04,17,08,40,12.10
2021,04,17,08,41,12.20
2021,04,17,08,42,12.30
2021,04,17,08,43,12.40
2021,04,17,08,44,12.60
2021,04,17,08,45,12.70
2021,04,17,08,46,12.80
2021,04,17,08,47,12.90
2021,04,17,08,48,13.00
2021,04,17,08,49,13.10
2021,04,17,08,50,13.20
2021,04,17,08,51,13.30
2021,04,17,08,52,13.40
2021,04,17,08,53,13.40
2021,04,17,08,54,13.50
2021,04,17,08,55,13.50
2021,04,17,08,56,13.60
2021,04,17,08,57,13.60
2021,04,17,08,58,13.70
2021,04,17,08,59,13.80
2021,04,17,09,00,13.80
2021,04,17,09,01,13.90
2021,04,17,09,02,13.90
2021,04,17,09,03,14.00
2021,04,17,09,04,14.10
2021,04,17,09,05,14.00
2021,04,17,09,06,14.10
2021,04,17,09,07,14.00
2021,04,17,09,08,14.00
2021,04,17,09,09,14.00
2021,04,17,09,10,14.00
2021,04,17,09,11,14.00
2021,04,17,09,12,14.00
2021,04,17,09,13,14.10
2021,04,17,09,14,14.10
2021,04,17,09,15,14.20
2021,04,17,09,16,14.20
2021,04,17,09,17,14.20
2021,04,17,09,18,14.20
2021,04,17,09,19,14.30
2021,04,17,09,20,14.30
2021,04,17,09,21,14.40
2021,04,17,09,22,14.50
2021,04,17,09,23,14.50
2021,04,17,09,24,14.60
2021,04,17,09,25,14.60
2021,04,17,09,26,14.60
2021,04,17,09,27,14.60
2021,04,17,09,28,14.70
2021,04,17,09,29,14.70
2021,04,17,09,30,14.80
2021,04,17,09,31,14.80
2021,04,17,09,32,14.90
2021,04,17,09,33,14.90
2021,04,17,09,34,14.90
2021,04,17,09,35,15.00
2021,04,17,09,36,15.10
2021,04,17,09,37,15.10
2021,04,17,09,38,15.20
2021,04,17,09,39,15.20
2021,04,17,09,40,15.20
2021,04,17,09,41,15.20
2021,04,17,09,42,15.20
2021,04,17,09,43,15.20
2021,04,17,09,44,15.20
2021,04,17,09,45,15.20
2021,04,17,09,46,15.30
2021,04,17,09,47,15.30
2021,04,17,09,48,15.40
2021,04,17,09,49,15.40
2021,04,17,09,50,15.40
2021,04,17,09,51,15.40
2021,04,17,09,52,15.30
2021,04,17,09,53,15.20
2021,04,17,09,54,15.20
2021,04,17,09,55,15.20
2021,04,17,09,56,15.20
2021,04,17,09,57,15.10
2021,04,17,09,58,15.10
2021,04,17,09,59,15.10
2021,04,17,10,00,15.10
2021,04,17,10,01,15.00
2021,04,17,10,02,15.00
2021,04,17,10,03,15.00
2021,04,17,10,04,15.00
2021,04,17,10,05,15.00
2021,04,17,10,06,14.90
2021,04,17,10,07,14.80
2021,04,17,10,08,14.80
2021,04,17,10,09,14.80
2021,04,17,10,10,14.80
2021,04,17,10,11,14.80
2021,04,17,10,12,14.90
2021,04,17,10,13,15.10
2021,04,17,10,14,15.10
2021,04,17,10,15,15.20
2021,04,17,10,16,15.20
2021,04,17,10,17,15.20
2021,04,17,10,18,15.20
2021,04,17,10,19,15.20
2021,04,17,10,20,15.20
2021,04,17,10,21,15.30
2021,04,17,10,22,15.30
2021,04,17,10,23,15.30
2021,04,17,10,24,15.20
2021,04,17,10,25,15.20
2021,04,17,10,26,15.20
2021,04,17,10,27,15.20
2021,04,17,10,28,15.20
2021,04,17,10,29,15.20
2021,04,17,10,30,15.20
2021,04,17,10,31,15.30
2021,04,17,10,32,15.40
2021,04,17,10,33,15.40
2021,04,17,10,34,15.50
2021,04,17,10,35,15.60
2021,04,17,10,36,15.60
2021,04,17,10,37,15.70
2021,04,17,10,38,15.70
2021,04,17,10,39,15.70
2021,04,17,10,40,15.80
2021,04,17,10,41,15.80
2021,04,17,10,42,15.80
2021,04,17,10,43,15.90
2021,04,17,10,44,15.90
2021,04,17,10,45,15.90
2021,04,17,10,46,15.80
2021,04,17,10,47,15.80
2021,04,17,10,48,15.80
2021,04,17,10,49,15.80
2021,04,17,10,50,15.80
2021,04,17,10,51,15.80
2021,04,17,10,52,15.90
2021,04,17,10,53,16.00
2021,04,17,10,54,16.00
2021,04,17,10,55,16.00
2021,04,17,10,56,16.10
2021,04,17,10,57,16.10
2021,04,17,10,58,16.10
2021,04,17,10,59,16.20
2021,04,17,11,00,16.20
2021,04,17,11,01,16.30
2021,04,17,11,02,16.40
2021,04,17,11,03,16.40
2021,04,17,11,04,16.50
2021,04,17,11,05,16.50
2021,04,17,11,06,16.40
2021,04,17,11,07,16.40
2021,04,17,11,08,16.40
2021,04,17,11,09,16.40
2021,04,17,11,10,16.40
2021,04,17,11,11,16.50
2021,04,17,11,12,16.60
2021,04,17,11,13,16.80
2021,04,17,11,14,16.80
2021,04,17,11,15,16.80
2021,04,17,11,16,16.80
2021,04,17,11,17,16.90
2021,04,17,11,18,16.90
2021,04,17,11,19,16.90
2021,04,17,11,20,17.00
2021,04,17,11,21,17.10
2021,04,17,11,22,17.20
2021,04,17,11,23,17.20
2021,04,17,11,24,17.30
2021,04,17,11,25,17.40
2021,04,17,11,26,17.60
2021,04,17,11,27,17.70
2021,04,17,11,28,17.70
2021,04,17,11,29,17.70
2021,04,17,11,30,17.80
2021,04,17,11,31,17.80
2021,04,17,11,32,17.80
2021,04,17,11,33,17.80
2021,04,17,11,34,17.90
2021,04,17,11,35,17.90
2021,04,17,11,36,17.80
2021,04,17,11,37,17.70
2021,04,17,11,38,17.60
2021,04,17,11,39,17.40
2021,04,17,11,40,17.40
2021,04,17,11,41,17.30
2021,04,17,11,42,17.30
2021,04,17,11,43,17.20
2021,04,17,11,44,17.20
2021,04,17,11,45,17.20
2021,04,17,11,46,17.10
2021,04,17,11,47,17.20
2021,04,17,11,48,17.20
2021,04,17,11,49,17.20
2021,04,17,11,50,17.20
2021,04,17,11,51,17.20
2021,04,17,11,52,17.20
2021,04,17,11,53,17.30
2021,04,17,11,54,17.30
2021,04,17,11,55,17.30
2021,04,17,11,56,17.40
2021,04,17,11,57,17.50
2021,04,17,11,58,17.60
2021,04,17,11,59,17.80
2021,04,17,12,00,17.90
2021,04,17,12,01,18.00
2021,04,17,12,02,18.10
2021,04,17,12,03,18.10
2021,04,17,12,04,18.20
2021,04,17,12,05,18.20
2021,04,17,12,06,18.30
2021,04,17,12,07,18.30
2021,04,17,12,08,18.30
2021,04,17,12,09,18.30
2021,04,17,12,10,18.20
2021,04,17,12,11,18.20
2021,04,17,12,12,18.20
2021,04,17,12,13,18.10
2021,04,17,12,14,18.10
2021,04,17,12,15,18.10
2021,04,17,12,16,18.10
2021,04,17,12,17,18.10
2021,04,17,12,18,18.10
2021,04,17,12,19,18.10
2021,04,17,12,20,18.00
2021,04,17,12,21,17.90
2021,04,17,12,22,17.80
2021,04,17,12,23,17.70
2021,04,17,12,24,17.60
2021,04,17,12,25,17.40
2021,04,17,12,26,17.40
2021,04,17,12,27,17.40
2021,04,17,12,28,17.40
2021,04,17,12,29,17.50
2021,04,17,12,30,17.60
2021,04,17,12,31,17.80
2021,04,17,12,32,17.90
2021,04,17,12,33,18.00
2021,04,17,12,34,18.10
2021,04,17,12,35,18.00
2021,04,17,12,36,18.10
2021,04,17,12,37,18.10
2021,04,17,12,38,18.20
2021,04,17,12,39,18.20
2021,04,17,12,40,18.20
2021,04,17,12,41,18.30
2021,04,17,12,42,18.30
2021,04,17,12,43,18.20
2021,04,17,12,44,18.20
2021,04,17,12,45,18.10
2021,04,17,12,46,18.10
2021,04,17,12,47,18.10
2021,04,17,12,48,18.10
2021,04,17,12,49,18.10
2021,04,17,12,50,18.10
2021,04,17,12,51,18.10
2021,04,17,12,52,18.20
2021,04,17,12,53,18.30
2021,04,17,12,54,18.20
2021,04,17,12,55,18.20
2021,04,17,12,56,18.20
2021,04,17,12,57,18.20
2021,04,17,12,58,18.20
2021,04,17,12,59,18.20
2021,04,17,13,00,18.10
2021,04,17,13,01,18.20
2021,04,17,13,02,18.20
2021,04,17,13,03,18.30
2021,04,17,13,04,18.30
2021,04,17,13,05,18.30
2021,04,17,13,06,18.40
2021,04,17,13,07,18.30
2021,04,17,13,08,18.40
2021,04,17,13,09,18.40
2021,04,17,13,10,18.50
2021,04,17,13,11,18.60
2021,04,17,13,12,18.70
2021,04,17,13,13,18.70
2021,04,17,13,14,18.80
2021,04,17,13,15,18.80
2021,04,17,13,16,18.90
2021,04,17,13,17,19.00
2021,04,17,13,18,19.10
2021,04,17,13,19,19.10
2021,04,17,13,20,19.20
2021,04,17,13,21,19.20
2021,04,17,13,22,19.10
2021,04,17,13,23,19.20
2021,04,17,13,24,19.20
2021,04,17,13,25,19.20
2021,04,17,13,26,19.30
2021,04,17,13,27,19.30
2021,04,17,13,28,19.40
2021,04,17,13,29,19.40
2021,04,17,13,30,19.50
2021,04,17,13,31,19.60
2021,04,17,13,32,19.70
2021,04,17,13,33,19.80
2021,04,17,13,34,19.80
2021,04,17,13,35,19.80
2021,04,17,13,36,19.70
2021,04,17,13,37,19.70
2021,04,17,13,38,19.60
2021,04,17,13,39,19.50
2021,04,17,13,40,19.40
2021,04,17,13,41,19.30
2021,04,17,13,42,19.30
2021,04,17,13,43,19.30
2021,04,17,13,44,19.30
2021,04,17,13,45,19.30
2021,04,17,13,46,19.20
2021,04,17,13,47,19.30
2021,04,17,13,48,19.30
2021,04,17,13,49,19.30
2021,04,17,13,50,19.30
2021,04,17,13,51,19.20
2021,04,17,13,52,19.20
2021,04,17,13,53,19.20
2021,04,17,13,54,19.20
2021,04,17,13,55,19.20
2021,04,17,13,56,19.30
2021,04,17,13,57,19.30
2021,04,17,13,58,19.40
2021,04,17,13,59,19.40
2021,04,17,14,00,19.40
2021,04,17,14,01,19.40
2021,04,17,14,02,19.40
2021,04,17,14,03,19.30
2021,04,17,14,04,19.30
2021,04,17,14,05,19.40
2021,04,17,14,06,19.40
2021,04,17,14,07,19.50
2021,04,17,14,08,19.60
2021,04,17,14,09,19.60
2021,04,17,14,10,19.60
2021,04,17,14,11,19.50
2021,04,17,14,12,19.50
2021,04,17,14,13,19.40
2021,04,17,14,14,19.50
2021,04,17,14,15,19.50
2021,04,17,14,16,19.60
2021,04,17,14,17,19.60
2021,04,17,14,18,19.70
2021,04,17,14,19,19.80
2021,04,17,14,20,19.90
2021,04,17,14,21,19.90
2021,04,17,14,22,19.90
2021,04,17,14,23,20.00
2021,04,17,14,24,20.00
2021,04,17,14,25,20.00
2021,04,17,14,26,20.00
2021,04,17,14,27,20.00
2021,04,17,14,28,19.90
2021,04,17,14,29,19.90
2021,04,17,14,30,19.80
2021,04,17,14,31,19.80
2021,04,17,14,32,19.80
2021,04,17,14,33,19.70
2021,04,17,14,34,19.70
2021,04,17,14,35,19.70
2021,04,17,14,36,19.70
2021,04,17,14,37,19.70
2021,04,17,14,38,19.70
2021,04,17,14,39,19.70
2021,04,17,14,40,19.80
2021,04,17,14,41,19.80
2021,04,17,14,42,19.80
2021,04,17,14,43,19.80
2021,04,17,14,44,19.80
2021,04,17,14,45,19.80
2021,04,17,14,46,19.80
2021,04,17,14,47,19.90
2021,04,17,14,48,19.80
2021,04,17,14,49,19.80
2021,04,17,14,50,19.80
2021,04,17,14,51,19.90
2021,04,17,14,52,19.90
2021,04,17,14,53,19.90
2021,04,17,14,54,20.00
2021,04,17,14,55,20.00
2021,04,17,14,56,20.00
2021,04,17,14,57,20.00
2021,04,17,14,58,20.00
2021,04,17,14,59,20.00
2021,04,17,15,00,20.10
2021,04,17,15,01,20.20
2021,04,17,15,02,20.30
2021,04,17,15,03,20.50
2021,04,17,15,04,20.60
2021,04,17,15,05,20.70
2021,04,17,15,06,20.70
2021,04,17,15,07,20.70
2021,04,17,15,08,20.70
2021,04,17,15,09,20.80
2021,04,17,15,10,20.80
2021,04,17,15,11,20.90
2021,04,17,15,12,21.00
2021,04,17,15,13,21.00
2021,04,17,15,14,21.00
2021,04,17,15,15,21.00
2021,04,17,15,16,21.00
2021,04,17,15,17,20.90
2021,04,17,15,18,20.90
2021,04,17,15,19,20.80
2021,04,17,15,20,20.70
2021,04,17,15,21,20.60
2021,04,17,15,22,20.60
2021,04,17,15,23,20.60
2021,04,17,15,24,20.60
2021,04,17,15,25,20.60
2021,04,17,15,26,20.60
2021,04,17,15,27,20.60
2021,04,17,15,28,20.60
2021,04,17,15,29,20.70
2021,04,17,15,30,20.70
2021,04,17,15,31,20.70
2021,04,17,15,32,20.70
2021,04,17,15,33,20.70
2021,04,17,15,34,20.70
2021,04,17,15,35,20.70
2021,04,17,15,36,20.80
2021,04,17,15,37,20.90
2021,04,17,15,38,20.80
2021,04,17,15,39,20.80
2021,04,17,15,40,20.70
2021,04,17,15,41,20.70
2021,04,17,15,42,20.70
2021,04,17,15,43,20.60
2021,04,17,15,44,20.60
2021,04,17,15,45,20.60
2021,04,17,15,46,20.60
2021,04,17,15,47,20.60
2021,04,17,15,48,20.60
2021,04,17,15,49,20.60
2021,04,17,15,50,20.60
2021,04,17,15,51,20.60
2021,04,17,15,52,20.70
2021,04,17,15,53,20.70
2021,04,17,15,54,20.80
2021,04,17,15,55,20.80
2021,04,17,15,56,20.80
2021,04,17,15,57,20.80
2021,04,17,15,58,20.90
2021,04,17,15,59,21.00
2021,04,17,16,00,21.00
2021,04,17,16,01,21.10
2021,04,17,16,02,21.20
2021,04,17,16,03,21.20
2021,04,17,16,04,21.30
2021,04,17,16,05,21.30
2021,04,17,16,06,21.40
2021,04,17,16,07,21.40
2021,04,17,16,08,21.40
2021,04,17,16,09,21.40
2021,04,17,16,10,21.40
2021,04,17,16,11,21.40
2021,04,17,16,12,21.40
2021,04,17,16,13,21.40
2021,04,17,16,14,21.30
2021,04,17,16,15,21.40
2021,04,17,16,16,21.30
2021,04,17,16,17,21.30
2021,04,17,16,18,21.30
2021,04,17,16,19,21.30
2021,04,17,16,20,21.30
2021,04,17,16,21,21.30
2021,04,17,16,22,21.30
2021,04,17,16,23,21.30
2021,04,17,16,24,21.20
2021,04,17,16,25,21.20
2021,04,17,16,26,21.10
2021,04,17,16,27,21.10
2021,04,17,16,28,21.10
2021,04,17,16,29,21.10
2021,04,17,16,30,21.10
2021,04,17,16,31,21.10
2021,04,17,16,32,21.10
2021,04,17,16,33,21.10
2021,04,17,16,34,21.10
2021,04,17,16,35,21.10
2021,04,17,16,36,21.10
2021,04,17,16,37,21.20
2021,04,17,16,38,21.20
2021,04,17,16,39,21.20
2021,04,17,16,40,21.20
2021,04,17,16,41,21.20
2021,04,17,16,42,21.20
2021,04,17,16,43,21.20
2021,04,17,16,44,21.20
2021,04,17,16,45,21.20
2021,04,17,16,46,21.20
2021,04,17,16,47,21.20
2021,04,17,16,48,21.20
2021,04,17,16,49,21.20
2021,04,17,16,50,21.20
2021,04,17,16,51,21.20
2021,04,17,16,52,21.20
2021,04,17,16,53,21.30
2021,04,17,16,54,21.30
2021,04,17,16,55,21.30
2021,04,17,16,56,21.30
2021,04,17,16,57,21.30
2021,04,17,16,58,21.30
2021,04,17,16,59,21.30
2021,04,17,17,00,21.30
2021,04,17,17,01,21.30
2021,04,17,17,02,21.30
2021,04,17,17,03,21.30
2021,04,17,17,04,21.30
2021,04,17,17,05,21.40
2021,04,17,17,06,21.40
2021,04,17,17,07,21.50
2021,04,17,17,08,21.60
2021,04,17,17,09,21.60
2021,04,17,17,10,21.70
2021,04,17,17,11,21.80
2021,04,17,17,12,21.80
2021,04,17,17,13,21.80
2021,04,17,17,14,21.80
2021,04,17,17,15,21.80
2021,04,17,17,16,21.80
2021,04,17,17,17,21.80
2021,04,17,17,18,21.80
2021,04,17,17,19,21.80
2021,04,17,17,20,21.80
2021,04,17,17,21,21.80
2021,04,17,17,22,21.80
2021,04,17,17,23,21.80
2021,04,17,17,24,21.80
2021,04,17,17,25,21.80
2021,04,17,17,26,21.80
2021,04,17,17,27,21.80
2021,04,17,17,28,21.80
2021,04,17,17,29,21.80
2021,04,17,17,30,21.80
2021,04,17,17,31,21.80
2021,04,17,17,32,21.80
2021,04,17,17,33,21.80
2021,04,17,17,34,21.80
2021,04,17,17,35,21.80
2021,04,17,17,36,21.80
2021,04,17,17,37,21.80
2021,04,17,17,38,21.80
2021,04,17,17,39,21.80
2021,04,17,17,40,21.80
2021,04,17,17,41,21.80